Powrót do katalogu

STARLINK-3826

AktywnyŁącznośćVLEO
NORAD 52347·PAYLOAD·🇺🇸 United States

Wystrzelony Apr 29, 2022 z Cape Canaveral Space Force Station

Loading…

Następne Przeloty (najbliższe 24 godziny)

TLE

ŚwieżeSource: CelesTrak SupGP

Epoka: Sep 15, 2026, 01:17 UTC

1 52347C 22045S   26258.05395833 -.00045220  00000+0 -13722-2 0  2582
2 52347  53.1579  55.3418 0001261  76.2262 264.3532 15.33569951    17

Śledź STARLINK-3826 w czasie rzeczywistym z AllMySat

Download on the App Store